Orbital Elements at Epoch 2459000.5 (2020-May-31.0) TDB
Reference: JPL 23 (heliocentric ecliptic J2000)
Element | Value | Uncertainty (1-sigma) | Units |
e | .1792878528513613 | 3.3248e-08 | |
a | 2.258251717982362 | 6.7059e-09 | au |
q | 1.853374616267407 | 7.4178e-08 | au |
i | 3.884289669952526 | 3.4614e-06 | deg |
node | 225.5848991454087 | 5.8639e-05 | deg |
peri | 179.1176714960969 | 6.0054e-05 | deg |
M | 103.9265684074009 | 1.2793e-05 | deg |
tp | 2458642.666466137845 (2019-Jun-08.16646614) | 4.3604e-05 | TDB |
period | 1239.529738780466 3.39 | 5.5212e-06 1.512e-08 | d yr |
n | .290432725199633 | 1.2937e-09 | deg/d |
Q | 2.663128819697318 | 7.9082e-09 | au |
|
| | Orbit Determination Parameters
Additional Information
|